Location: American Medical Response
(33.3472°N, 96.5511°W)
Time: 11:08:23
(UTC+00:00)

SJ 16-02 - Visible Passes

Search period start: 03 July 2022 00:00
Search period end: 13 July 2022 00:00
Orbit: 604 x 615 km, 75.0° (Epoch: 02 July)

Date Brightness Start Highest point End Pass type
(mag) Time Alt. Az. Time Alt. Az. Time Alt. Az.
03 Jul 3.5 06:33:02 10° N 06:34:52 24° N 06:34:52 24° N visible
04 Jul 3.7 06:47:26 10° NNW 06:48:54 20° NNW 06:48:54 20° NNW visible
05 Jul 3.9 05:24:35 10° NNE 05:26:00 15° NE 05:26:00 15° NE visible
05 Jul 4.0 07:02:14 10° NW 07:02:56 14° NW 07:02:56 14° NW visible
06 Jul 3.6 05:38:11 10° N 05:40:04 22° NNE 05:40:04 22° NNE visible
07 Jul 3.5 05:52:17 10° N 05:54:10 25° N 05:54:10 25° N visible
08 Jul 3.7 06:06:46 10° NNW 06:08:18 21° NNW 06:08:18 21° NNW visible
09 Jul 3.6 04:43:39 10° NNE 04:45:30 17° NE 04:45:30 17° NE visible
09 Jul 4.0 06:21:38 10° NW 06:22:27 14° NW 06:22:27 14° NW visible
10 Jul 3.2 04:57:22 10° N 04:59:40 26° NNE 04:59:40 26° NNE visible
11 Jul 3.1 05:11:33 10° NNW 05:13:52 31° N 05:13:52 31° N visible
12 Jul 3.7 03:49:57 10° NE 03:51:09 12° ENE 03:51:09 12° ENE visible
12 Jul 3.4 05:26:05 10° NNW 05:28:06 25° NW 05:28:06 25° NW visible
